Hourly Data Report for October 22, 2021

OTTAWA INTL A
ONTARIO
Current Station Operator: NAVCAN

45°19'00.000" N
75°40'00.000" W
114.90 m
6106001
71628
YOW

Download Data

Hourly Data (October 2021)
Hourly Data Report for October 22, 2021
TIME
LST
Temp Definition
°C
Dew Point Definition
°C
Rel Hum Definition
%
Precip. Amount Definition
mm

Wind Dir Definition
10's deg

Wind Spd Definition
km/h
Visibility Definition
km
Stn Press Definition
kPa
Hmdx Definition


Wind Chill Definition


Weather Definition


00:00 14.0 13.5 97   20 9 16.1 98.90     LegendNANA
01:00 12.1 11.4 96   26 22 16.1 98.92     Rain Showers
02:00 10.4 9.9 96   29 26 12.9 98.94     Rain
03:00 9.2 7.8 91   32 31 16.1 99.01     LegendNANA
04:00 7.8 6.5 91   32 33 24.1 99.15     Rain
05:00 6.2 4.5 89   30 28 24.1 99.31     LegendNANA
06:00 5.0 2.8 86   30 27 24.1 99.42     LegendNANA
07:00 4.2 2.1 86   30 21 24.1 99.59     Mostly Cloudy
08:00 4.1 1.4 83   29 24 24.1 99.78     LegendNANA
09:00 4.1 0.4 77   30 25 24.1 99.86     LegendNANA
10:00 4.4 -0.2 72   29 26 24.1 99.92     Mostly Cloudy
11:00 5.4 0.4 70   31 20 24.1 99.98     LegendNANA
12:00 5.2 -0.1 68   29 24 24.1 100.00     LegendNANA
13:00 5.8 0.2 67   27 18 24.1 100.03     Mostly Cloudy
14:00 5.9 0.2 67   26 16 24.1 100.08     LegendNANA
15:00 6.3 0.2 65   27 15 24.1 100.11     LegendNANA
16:00 5.7 -0.8 63   26 17 24.1 100.17     Mostly Cloudy
17:00 4.2 -1.4 67   27 14 24.1 100.21     LegendNANA
18:00 1.9 -1.0 81   26 10 24.1 100.26     LegendNANA
19:00 1.8 -1.2 81   25 9 24.1 100.29     Mainly Clear
20:00 0.8 -1.4 85   26 8 24.1 100.28     LegendNANA
21:00 1.4 -1.4 81   31 12 24.1 100.31     LegendNANA
22:00 1.9 -1.4 79   31 9 24.1 100.32     Mostly Cloudy
23:00 1.1 -1.6 82   32 8 24.1 100.27     LegendNANA

Notes on Data Quality.

Legend

  • E = Estimated
  • M = Missing
  • NA = Not Available*
  • [empty] = Indicates an unobserved value
Date modified: